Time,TemperatureF,DewpointF,PressureIn,WindDirection,WindDirectionDegrees,WindSpeedMPH,WindSpeedGustMPH,Humidity,HourlyPrecipIn,Conditions,Clouds,dailyrainin,SoftwareType,DateUTC
2013-09-14 00:02:00,54.9,43.4,30.06,ENE,71,0.0,5.0,65,0.00,,,0.00,WeatherCatV1.21B27,2013-09-14 04:02:00,
2013-09-14 00:03:00,54.9,43.4,30.06,North,5,3.0,5.0,65,0.00,,,0.00,WeatherCatV1.21B27,2013-09-14 04:03:00,
2013-09-14 00:04:00,54.9,43.4,30.06,SSW,194,5.0,5.0,65,0.00,,,0.00,WeatherCatV1.21B27,2013-09-14 04:04:00,
2013-09-14 00:09:00,54.9,43.8,30.06,West,281,2.0,5.0,66,0.00,,,0.00,WeatherCatV1.21B27,2013-09-14 04:09:00,
2013-09-14 00:11:00,54.9,44.2,30.06,WNW,302,0.0,6.0,67,0.00,,,0.00,WeatherCatV1.21B27,2013-09-14 04:11:00,
2013-09-14 00:12:00,54.9,44.2,30.06,ENE,76,3.0,6.0,67,0.00,,,0.00,WeatherCatV1.21B27,2013-09-14 04:12:00,
2013-09-14 00:17:00,54.8,44.0,30.06,North,0,0.0,3.0,67,0.00,,,0.00,WeatherCatV1.21B27,2013-09-14 04:17:00,
2013-09-14 00:22:00,54.8,44.4,30.06,NNE,19,4.0,4.0,68,0.00,,,0.00,WeatherCatV1.21B27,2013-09-14 04:22:00,
2013-09-14 00:27:00,54.7,44.3,30.06,NNE,24,1.0,1.0,68,0.00,,,0.00,WeatherCatV1.21B27,2013-09-14 04:27:00,
2013-09-14 00:32:00,54.6,43.9,30.06,NW,323,2.0,6.0,67,0.00,,,0.00,WeatherCatV1.21B27,2013-09-14 04:32:00,
2013-09-14 00:37:00,54.5,43.4,30.06,NNE,12,0.0,3.0,66,0.00,,,0.00,WeatherCatV1.21B27,2013-09-14 04:37:00,
2013-09-14 00:42:00,54.5,43.0,30.06,North,10,0.0,4.0,65,0.00,,,0.00,WeatherCatV1.21B27,2013-09-14 04:42:00,
2013-09-14 00:47:00,54.4,42.5,30.06,North,355,0.0,6.0,64,0.00,,,0.00,WeatherCatV1.21B27,2013-09-14 04:47:00,
2013-09-14 00:52:00,54.3,42.8,30.06,NNW,346,0.0,3.0,65,0.00,,,0.00,WeatherCatV1.21B27,2013-09-14 04:52:00,
2013-09-14 00:57:00,54.3,42.8,30.06,NNW,348,4.0,6.0,65,0.00,,,0.00,WeatherCatV1.21B27,2013-09-14 04:57:00,
2013-09-14 01:02:00,54.2,41.9,30.06,SW,234,0.0,5.0,63,0.00,,,0.00,WeatherCatV1.21B27,2013-09-14 05:02:00,
2013-09-14 01:07:00,54.2,41.9,30.06,East,82,3.0,4.0,63,0.00,,,0.00,WeatherCatV1.21B27,2013-09-14 05:07:00,
2013-09-14 01:12:00,54.2,41.9,30.06,North,355,0.0,1.0,63,0.00,,,0.00,WeatherCatV1.21B27,2013-09-14 05:12:00,
2013-09-14 01:17:00,54.2,41.9,30.06,North,355,0.0,0.0,63,0.00,,,0.00,WeatherCatV1.21B27,2013-09-14 05:17:00,
2013-09-14 01:22:00,54.1,41.4,30.06,NNW,346,4.0,7.0,62,0.00,,,0.00,WeatherCatV1.21B27,2013-09-14 05:22:00,
2013-09-14 01:27:00,54.0,41.3,30.07,North,0,0.0,1.0,62,0.00,,,0.00,WeatherCatV1.21B27,2013-09-14 05:27:00,
2013-09-14 01:32:00,54.0,41.3,30.07,SW,223,0.0,5.0,62,0.00,,,0.00,WeatherCatV1.21B27,2013-09-14 05:32:00,
2013-09-14 01:37:00,53.9,41.2,30.07,NNW,348,0.0,1.0,62,0.00,,,0.00,WeatherCatV1.21B27,2013-09-14 05:37:00,
2013-09-14 01:42:00,53.8,41.1,30.07,SSW,205,2.0,2.0,62,0.00,,,0.00,WeatherCatV1.21B27,2013-09-14 05:42:00,
2013-09-14 01:47:00,53.8,41.1,30.06,North,349,5.0,5.0,62,0.00,,,0.00,WeatherCatV1.21B27,2013-09-14 05:47:00,
2013-09-14 01:52:00,53.8,40.2,30.07,West,259,0.0,0.0,60,0.00,,,0.00,WeatherCatV1.21B27,2013-09-14 05:52:00,
2013-09-14 01:57:00,53.8,40.2,30.07,NW,318,0.0,0.0,60,0.00,,,0.00,WeatherCatV1.21B27,2013-09-14 05:57:00,
2013-09-14 02:02:00,53.8,40.7,30.07,NNE,31,0.0,2.0,61,0.00,,,0.00,WeatherCatV1.21B27,2013-09-14 06:02:00,
2013-09-14 02:07:00,53.8,40.7,30.07,North,355,1.0,2.0,61,0.00,,,0.00,WeatherCatV1.21B27,2013-09-14 06:07:00,
2013-09-14 02:12:00,53.8,40.2,30.07,North,0,1.0,3.0,60,0.00,,,0.00,WeatherCatV1.21B27,2013-09-14 06:12:00,
2013-09-14 02:17:00,53.8,39.8,30.07,NNW,341,0.0,0.0,59,0.00,,,0.00,WeatherCatV1.21B27,2013-09-14 06:17:00,
2013-09-14 02:22:00,53.8,40.2,30.07,North,355,1.0,2.0,60,0.00,,,0.00,WeatherCatV1.21B27,2013-09-14 06:22:00,
2013-09-14 02:27:00,53.7,40.6,30.07,NE,36,0.0,4.0,61,0.00,,,0.00,WeatherCatV1.21B27,2013-09-14 06:27:00,
2013-09-14 02:32:00,53.7,40.6,30.07,North,355,2.0,2.0,61,0.00,,,0.00,WeatherCatV1.21B27,2013-09-14 06:32:00,
2013-09-14 02:37:00,53.8,40.7,30.07,North,11,1.0,6.0,61,0.00,,,0.00,WeatherCatV1.21B27,2013-09-14 06:37:00,
2013-09-14 02:42:00,53.8,40.7,30.07,NNE,22,0.0,0.0,61,0.00,,,0.00,WeatherCatV1.21B27,2013-09-14 06:42:00,
2013-09-14 02:47:00,53.8,41.1,30.07,NNW,345,1.0,2.0,62,0.00,,,0.00,WeatherCatV1.21B27,2013-09-14 06:47:00,
2013-09-14 02:52:00,53.8,40.7,30.07,North,0,2.0,2.0,61,0.00,,,0.00,WeatherCatV1.21B27,2013-09-14 06:52:00,
2013-09-14 02:57:00,53.8,40.7,30.07,ENE,60,0.0,0.0,61,0.00,,,0.00,WeatherCatV1.21B27,2013-09-14 06:57:00,
2013-09-14 03:02:00,53.7,40.6,30.07,West,259,0.0,3.0,61,0.00,,,0.00,WeatherCatV1.21B27,2013-09-14 07:02:00,
2013-09-14 03:07:00,53.8,41.1,30.08,North,349,0.0,0.0,62,0.00,,,0.00,WeatherCatV1.21B27,2013-09-14 07:07:00,
2013-09-14 03:12:00,53.8,40.7,30.08,North,355,0.0,0.0,61,0.00,,,0.00,WeatherCatV1.21B27,2013-09-14 07:12:00,
2013-09-14 03:17:00,53.7,40.6,30.08,NNW,340,0.0,0.0,61,0.00,,,0.00,WeatherCatV1.21B27,2013-09-14 07:17:00,
2013-09-14 03:22:00,53.7,40.6,30.08,NE,52,0.0,3.0,61,0.00,,,0.00,WeatherCatV1.21B27,2013-09-14 07:22:00,
2013-09-14 03:27:00,53.7,40.6,30.08,NNE,30,0.0,1.0,61,0.00,,,0.00,WeatherCatV1.21B27,2013-09-14 07:27:00,
2013-09-14 03:32:00,53.7,40.6,30.07,NNE,30,0.0,0.0,61,0.00,,,0.00,WeatherCatV1.21B27,2013-09-14 07:32:00,
2013-09-14 03:37:00,53.7,40.6,30.07,NNW,341,0.0,0.0,61,0.00,,,0.00,WeatherCatV1.21B27,2013-09-14 07:37:00,
2013-09-14 03:42:00,53.7,41.0,30.08,NNW,342,0.0,0.0,62,0.00,,,0.00,WeatherCatV1.21B27,2013-09-14 07:42:00,
2013-09-14 03:47:00,53.8,41.1,30.07,NE,49,0.0,0.0,62,0.00,,,0.00,WeatherCatV1.21B27,2013-09-14 07:47:00,
2013-09-14 03:52:00,53.9,41.6,30.07,SW,223,1.0,2.0,63,0.00,,,0.00,WeatherCatV1.21B27,2013-09-14 07:52:00,
2013-09-14 03:57:00,53.9,41.6,30.08,SW,225,0.0,0.0,63,0.00,,,0.00,WeatherCatV1.21B27,2013-09-14 07:57:00,
2013-09-14 04:02:00,53.9,42.0,30.08,SW,215,0.0,3.0,64,0.00,,,0.00,WeatherCatV1.21B27,2013-09-14 08:02:00,
2013-09-14 04:07:00,54.0,41.7,30.08,North,350,0.0,0.0,63,0.00,,,0.00,WeatherCatV1.21B27,2013-09-14 08:07:00,
2013-09-14 04:12:00,54.0,42.1,30.08,WSW,246,0.0,2.0,64,0.00,,,0.00,WeatherCatV1.21B27,2013-09-14 08:12:00,
2013-09-14 04:17:00,54.1,41.8,30.08,North,355,0.0,1.0,63,0.00,,,0.00,WeatherCatV1.21B27,2013-09-14 08:17:00,
2013-09-14 04:22:00,54.1,41.8,30.08,North,5,0.0,1.0,63,0.00,,,0.00,WeatherCatV1.21B27,2013-09-14 08:22:00,
2013-09-14 04:27:00,54.1,41.8,30.08,North,0,0.0,4.0,63,0.00,,,0.00,WeatherCatV1.21B27,2013-09-14 08:27:00,
2013-09-14 04:32:00,54.1,41.8,30.08,North,10,0.0,0.0,63,0.00,,,0.00,WeatherCatV1.21B27,2013-09-14 08:32:00,
2013-09-14 04:37:00,54.0,42.1,30.08,NNW,333,1.0,3.0,64,0.00,,,0.00,WeatherCatV1.21B27,2013-09-14 08:37:00,
2013-09-14 04:42:00,53.9,41.6,30.08,North,355,0.0,2.0,63,0.00,,,0.00,WeatherCatV1.21B27,2013-09-14 08:42:00,
2013-09-14 04:47:00,53.9,41.2,30.08,NNW,348,0.0,0.0,62,0.00,,,0.00,WeatherCatV1.21B27,2013-09-14 08:47:00,
2013-09-14 04:52:00,53.8,41.1,30.09,North,355,0.0,5.0,62,0.00,,,0.00,WeatherCatV1.21B27,2013-09-14 08:52:00,
2013-09-14 04:57:00,53.7,40.6,30.09,North,355,0.0,0.0,61,0.00,,,0.00,WeatherCatV1.21B27,2013-09-14 08:57:00,
2013-09-14 05:02:00,53.6,40.9,30.09,NW,321,0.0,0.0,62,0.00,,,0.00,WeatherCatV1.21B27,2013-09-14 09:02:00,
2013-09-14 05:07:00,53.5,40.8,30.09,NW,321,0.0,0.0,62,0.00,,,0.00,WeatherCatV1.21B27,2013-09-14 09:07:00,
2013-09-14 05:12:00,53.7,41.8,30.09,West,275,0.0,0.0,64,0.00,,,0.00,WeatherCatV1.21B27,2013-09-14 09:12:00,
2013-09-14 05:17:00,53.7,42.2,30.09,ENE,59,0.0,0.0,65,0.00,,,0.00,WeatherCatV1.21B27,2013-09-14 09:17:00,
2013-09-14 05:22:00,53.8,42.3,30.09,NE,55,0.0,0.0,65,0.00,,,0.00,WeatherCatV1.21B27,2013-09-14 09:22:00,
2013-09-14 05:27:00,53.7,41.4,30.09,WSW,242,0.0,0.0,63,0.00,,,0.00,WeatherCatV1.21B27,2013-09-14 09:27:00,
2013-09-14 05:32:00,53.7,41.4,30.09,North,5,1.0,3.0,63,0.00,,,0.00,WeatherCatV1.21B27,2013-09-14 09:32:00,
2013-09-14 05:37:00,53.6,41.7,30.09,NNW,327,0.0,1.0,64,0.00,,,0.00,WeatherCatV1.21B27,2013-09-14 09:37:00,
2013-09-14 05:42:00,53.6,41.7,30.09,NNW,327,0.0,0.0,64,0.00,,,0.00,WeatherCatV1.21B27,2013-09-14 09:42:00,
2013-09-14 05:47:00,53.5,41.6,30.10,NNE,21,0.0,4.0,64,0.00,,,0.00,WeatherCatV1.21B27,2013-09-14 09:47:00,
2013-09-14 05:52:00,53.4,41.5,30.10,NE,34,3.0,3.0,64,0.00,,,0.00,WeatherCatV1.21B27,2013-09-14 09:52:00,
2013-09-14 05:57:00,53.3,41.0,30.10,NNE,31,1.0,4.0,63,0.00,,,0.00,WeatherCatV1.21B27,2013-09-14 09:57:00,
2013-09-14 06:02:00,53.1,40.0,30.10,NNE,26,1.0,3.0,61,0.00,,,0.00,WeatherCatV1.21B27,2013-09-14 10:02:00,
2013-09-14 06:07:00,53.0,39.9,30.10,SW,230,0.0,2.0,61,0.00,,,0.00,WeatherCatV1.21B27,2013-09-14 10:07:00,
2013-09-14 06:12:00,52.9,40.2,30.10,NE,40,0.0,0.0,62,0.00,,,0.00,WeatherCatV1.21B27,2013-09-14 10:12:00,
2013-09-14 06:17:00,52.8,40.1,30.10,NNE,27,0.0,0.0,62,0.00,,,0.00,WeatherCatV1.21B27,2013-09-14 10:17:00,
2013-09-14 06:22:00,52.8,40.6,30.10,North,349,0.0,0.0,63,0.00,,,0.00,WeatherCatV1.21B27,2013-09-14 10:22:00,
2013-09-14 06:27:00,52.5,39.9,30.10,North,350,0.0,3.0,62,0.00,,,0.00,WeatherCatV1.21B27,2013-09-14 10:27:00,
2013-09-14 06:32:00,52.4,39.8,30.11,NNE,17,0.0,5.0,62,0.00,,,0.00,WeatherCatV1.21B27,2013-09-14 10:32:00,
2013-09-14 06:37:00,52.3,40.1,30.11,North,5,3.0,4.0,63,0.00,,,0.00,WeatherCatV1.21B27,2013-09-14 10:37:00,
2013-09-14 06:42:00,52.3,40.1,30.11,NE,56,0.0,0.0,63,0.00,,,0.00,WeatherCatV1.21B27,2013-09-14 10:42:00,
2013-09-14 06:47:00,52.3,40.1,30.11,West,261,0.0,2.0,63,0.00,,,0.00,WeatherCatV1.21B27,2013-09-14 10:47:00,
2013-09-14 06:52:00,52.3,39.7,30.11,North,9,0.0,2.0,62,0.00,,,0.00,WeatherCatV1.21B27,2013-09-14 10:52:00,
2013-09-14 06:57:00,52.2,39.6,30.12,NNE,18,0.0,3.0,62,0.00,,,0.00,WeatherCatV1.21B27,2013-09-14 10:57:00,
2013-09-14 07:02:00,52.3,39.7,30.12,NNW,342,3.0,5.0,62,0.00,,,0.00,WeatherCatV1.21B27,2013-09-14 11:02:00,
2013-09-14 07:07:00,52.4,39.8,30.12,NNW,332,0.0,0.0,62,0.00,,,0.00,WeatherCatV1.21B27,2013-09-14 11:07:00,
2013-09-14 07:12:00,52.3,40.1,30.12,NNW,347,0.0,3.0,63,0.00,,,0.00,WeatherCatV1.21B27,2013-09-14 11:12:00,
2013-09-14 07:17:00,52.2,39.6,30.12,North,355,0.0,2.0,62,0.00,,,0.00,WeatherCatV1.21B27,2013-09-14 11:17:00,
2013-09-14 07:22:00,52.2,39.6,30.12,NNE,19,0.0,1.0,62,0.00,,,0.00,WeatherCatV1.21B27,2013-09-14 11:22:00,
2013-09-14 07:27:00,52.3,40.1,30.12,NW,311,2.0,3.0,63,0.00,,,0.00,WeatherCatV1.21B27,2013-09-14 11:27:00,
2013-09-14 07:32:00,52.5,40.3,30.13,NNE,19,0.0,5.0,63,0.00,,,0.00,WeatherCatV1.21B27,2013-09-14 11:32:00,
2013-09-14 07:37:00,52.5,40.7,30.13,North,0,0.0,4.0,64,0.00,,,0.00,WeatherCatV1.21B27,2013-09-14 11:37:00,
2013-09-14 07:42:00,52.5,40.7,30.13,NE,44,0.0,0.0,64,0.00,,,0.00,WeatherCatV1.21B27,2013-09-14 11:42:00,
2013-09-14 07:47:00,52.5,40.7,30.13,NNW,339,0.0,2.0,64,0.00,,,0.00,WeatherCatV1.21B27,2013-09-14 11:47:00,
2013-09-14 07:52:00,52.6,40.8,30.13,NE,53,0.0,8.0,64,0.00,,,0.00,WeatherCatV1.21B27,2013-09-14 11:52:00,
2013-09-14 07:57:00,52.8,41.0,30.13,North,0,2.0,2.0,64,0.00,,,0.00,WeatherCatV1.21B27,2013-09-14 11:57:00,
2013-09-14 08:02:00,53.1,40.8,30.13,NNE,31,5.0,5.0,63,0.00,,,0.00,WeatherCatV1.21B27,2013-09-14 12:02:00,
2013-09-14 08:08:00,53.4,40.7,30.13,NE,40,0.0,2.0,62,0.00,,,0.00,WeatherCatV1.21B27,2013-09-14 12:08:00,
2013-09-14 08:13:00,53.6,41.3,30.13,NE,34,0.0,0.0,63,0.00,,,0.00,WeatherCatV1.21B27,2013-09-14 12:13:00,
2013-09-14 08:18:00,53.7,41.8,30.14,NNE,12,1.0,4.0,64,0.00,,,0.00,WeatherCatV1.21B27,2013-09-14 12:18:00,
2013-09-14 08:23:00,53.8,41.5,30.14,North,0,3.0,5.0,63,0.00,,,0.00,WeatherCatV1.21B27,2013-09-14 12:23:00,
2013-09-14 08:28:00,54.0,42.1,30.13,NNE,28,1.0,4.0,64,0.00,,,0.00,WeatherCatV1.21B27,2013-09-14 12:28:00,
2013-09-14 08:33:00,54.2,42.3,30.13,NNE,30,0.0,5.0,64,0.00,,,0.00,WeatherCatV1.21B27,2013-09-14 12:33:00,
2013-09-14 08:38:00,54.3,42.4,30.14,NE,34,0.0,3.0,64,0.00,,,0.00,WeatherCatV1.21B27,2013-09-14 12:38:00,
2013-09-14 08:43:00,54.4,42.5,30.14,North,0,0.0,3.0,64,0.00,,,0.00,WeatherCatV1.21B27,2013-09-14 12:43:00,
2013-09-14 08:49:00,54.6,42.7,30.14,North,355,0.0,4.0,64,0.00,,,0.00,WeatherCatV1.21B27,2013-09-14 12:49:00,
2013-09-14 08:54:00,54.7,42.3,30.14,North,349,0.0,6.0,63,0.00,,,0.00,WeatherCatV1.21B27,2013-09-14 12:54:00,
2013-09-14 08:59:00,54.9,43.4,30.14,North,355,0.0,4.0,65,0.00,,,0.00,WeatherCatV1.21B27,2013-09-14 12:59:00,
2013-09-14 09:04:00,55.0,43.0,30.14,North,11,5.0,5.0,64,0.00,,,0.00,WeatherCatV1.21B27,2013-09-14 13:04:00,
2013-09-14 09:09:00,55.2,42.8,30.14,North,355,0.0,4.0,63,0.00,,,0.00,WeatherCatV1.21B27,2013-09-14 13:09:00,
2013-09-14 09:14:00,55.3,42.9,30.14,NE,36,1.0,6.0,63,0.00,,,0.00,WeatherCatV1.21B27,2013-09-14 13:14:00,
2013-09-14 09:19:00,55.4,43.4,30.15,North,0,0.0,0.0,64,0.00,,,0.00,WeatherCatV1.21B27,2013-09-14 13:19:00,
2013-09-14 09:24:00,55.5,43.5,30.15,North,0,4.0,4.0,64,0.00,,,0.00,WeatherCatV1.21B27,2013-09-14 13:24:00,
2013-09-14 09:29:00,55.8,43.4,30.15,NNW,342,0.0,4.0,63,0.00,,,0.00,WeatherCatV1.21B27,2013-09-14 13:29:00,
2013-09-14 09:34:00,56.9,44.8,30.15,WSW,246,0.0,3.0,64,0.00,,,0.00,WeatherCatV1.21B27,2013-09-14 13:34:00,
2013-09-14 09:39:00,58.2,45.2,30.15,NW,325,2.0,3.0,62,0.00,,,0.00,WeatherCatV1.21B27,2013-09-14 13:39:00,
2013-09-14 09:44:00,58.3,44.0,30.15,NNW,347,0.0,6.0,59,0.00,,,0.00,WeatherCatV1.21B27,2013-09-14 13:44:00,
2013-09-14 09:49:00,58.2,44.8,30.15,NE,36,0.0,0.0,61,0.00,,,0.00,WeatherCatV1.21B27,2013-09-14 13:49:00,
2013-09-14 09:54:00,58.4,44.6,30.15,North,355,0.0,6.0,60,0.00,,,0.00,WeatherCatV1.21B27,2013-09-14 13:54:00,
2013-09-14 09:59:00,58.6,45.2,30.15,NNE,29,0.0,3.0,61,0.00,,,0.00,WeatherCatV1.21B27,2013-09-14 13:59:00,
2013-09-14 10:04:00,58.5,45.1,30.15,WSW,250,0.0,0.0,61,0.00,,,0.00,WeatherCatV1.21B27,2013-09-14 14:04:00,
2013-09-14 10:09:00,58.9,45.5,30.15,NE,34,0.0,0.0,61,0.00,,,0.00,WeatherCatV1.21B27,2013-09-14 14:09:00,
2013-09-14 10:14:00,59.8,46.8,30.15,North,0,0.0,5.0,62,0.00,,,0.00,WeatherCatV1.21B27,2013-09-14 14:14:00,
2013-09-14 10:19:00,60.0,47.4,30.15,NNE,13,0.0,0.0,63,0.00,,,0.00,WeatherCatV1.21B27,2013-09-14 14:19:00,
2013-09-14 10:24:00,60.7,45.8,30.15,NE,53,0.0,6.0,58,0.00,,,0.00,WeatherCatV1.21B27,2013-09-14 14:24:00,
2013-09-14 10:29:00,60.0,46.9,30.15,North,0,0.0,4.0,62,0.00,,,0.00,WeatherCatV1.21B27,2013-09-14 14:29:00,
2013-09-14 10:34:00,59.9,45.5,30.15,NNE,22,0.0,3.0,59,0.00,,,0.00,WeatherCatV1.21B27,2013-09-14 14:34:00,
2013-09-14 10:39:00,59.9,46.0,30.15,WSW,250,0.0,0.0,60,0.00,,,0.00,WeatherCatV1.21B27,2013-09-14 14:39:00,
2013-09-14 10:44:00,59.2,45.8,30.15,West,281,0.0,0.0,61,0.00,,,0.00,WeatherCatV1.21B27,2013-09-14 14:44:00,
2013-09-14 10:49:00,60.7,46.3,30.15,NE,40,0.0,0.0,59,0.00,,,0.00,WeatherCatV1.21B27,2013-09-14 14:49:00,
2013-09-14 10:54:00,60.8,46.8,30.15,NW,318,0.0,0.0,60,0.00,,,0.00,WeatherCatV1.21B27,2013-09-14 14:54:00,
2013-09-14 10:59:00,59.2,45.8,30.16,NE,41,0.0,2.0,61,0.00,,,0.00,WeatherCatV1.21B27,2013-09-14 14:59:00,
2013-09-14 11:04:00,60.2,49.6,30.16,East,83,0.0,0.0,68,0.00,,,0.00,WeatherCatV1.21B27,2013-09-14 15:04:00,
2013-09-14 11:09:00,60.6,48.8,30.16,NNE,32,4.0,4.0,65,0.00,,,0.00,WeatherCatV1.21B27,2013-09-14 15:09:00,
2013-09-14 11:14:00,60.8,45.9,30.16,NE,41,0.0,3.0,58,0.00,,,0.00,WeatherCatV1.21B27,2013-09-14 15:14:00,
2013-09-14 11:19:00,61.0,47.0,30.16,NNE,17,0.0,1.0,60,0.00,,,0.00,WeatherCatV1.21B27,2013-09-14 15:19:00,
2013-09-14 11:24:00,60.1,46.2,30.16,NNW,329,0.0,1.0,60,0.00,,,0.00,WeatherCatV1.21B27,2013-09-14 15:24:00,
2013-09-14 11:29:00,60.1,47.0,30.16,NE,45,0.0,1.0,62,0.00,,,0.00,WeatherCatV1.21B27,2013-09-14 15:29:00,
2013-09-14 11:34:00,60.4,46.9,30.16,SSW,213,0.0,0.0,61,0.00,,,0.00,WeatherCatV1.21B27,2013-09-14 15:34:00,
2013-09-14 11:39:00,60.2,46.7,30.16,SW,234,0.0,5.0,61,0.00,,,0.00,WeatherCatV1.21B27,2013-09-14 15:39:00,
2013-09-14 11:44:00,60.6,47.9,30.16,ENE,61,0.0,3.0,63,0.00,,,0.00,WeatherCatV1.21B27,2013-09-14 15:44:00,
2013-09-14 11:49:00,60.6,47.1,30.16,WNW,288,0.0,0.0,61,0.00,,,0.00,WeatherCatV1.21B27,2013-09-14 15:49:00,
2013-09-14 11:54:00,59.6,47.0,30.16,East,82,0.0,3.0,63,0.00,,,0.00,WeatherCatV1.21B27,2013-09-14 15:54:00,
2013-09-14 11:59:00,61.0,47.0,30.16,North,10,0.0,5.0,60,0.00,,,0.00,WeatherCatV1.21B27,2013-09-14 15:59:00,
2013-09-14 12:04:00,60.9,47.8,30.16,West,268,0.0,0.0,62,0.00,,,0.00,WeatherCatV1.21B27,2013-09-14 16:04:00,
2013-09-14 12:09:00,60.6,47.9,30.16,South,176,0.0,1.0,63,0.00,,,0.00,WeatherCatV1.21B27,2013-09-14 16:09:00,
2013-09-14 12:14:00,59.9,46.4,30.16,North,0,0.0,5.0,61,0.00,,,0.00,WeatherCatV1.21B27,2013-09-14 16:14:00,
2013-09-14 12:19:00,60.3,47.7,30.16,North,355,0.0,5.0,63,0.00,,,0.00,WeatherCatV1.21B27,2013-09-14 16:19:00,
2013-09-14 12:24:00,61.1,47.5,30.16,NNW,348,0.0,6.0,61,0.00,,,0.00,WeatherCatV1.21B27,2013-09-14 16:24:00,
2013-09-14 12:29:00,62.2,50.7,30.16,NNW,346,0.0,0.0,66,0.00,,,0.00,WeatherCatV1.21B27,2013-09-14 16:29:00,
2013-09-14 12:34:00,61.1,47.1,30.16,SW,235,2.0,3.0,60,0.00,,,0.00,WeatherCatV1.21B27,2013-09-14 16:34:00,
2013-09-14 12:39:00,60.9,48.6,30.16,NE,49,0.0,0.0,64,0.00,,,0.00,WeatherCatV1.21B27,2013-09-14 16:39:00,
2013-09-14 12:44:00,60.8,48.5,30.16,WSW,237,2.0,3.0,64,0.00,,,0.00,WeatherCatV1.21B27,2013-09-14 16:44:00,
2013-09-14 12:49:00,62.1,50.6,30.16,NNE,14,0.0,0.0,66,0.00,,,0.00,WeatherCatV1.21B27,2013-09-14 16:49:00,
2013-09-14 12:54:00,60.5,45.2,30.16,SW,229,0.0,4.0,57,0.00,,,0.00,WeatherCatV1.21B27,2013-09-14 16:54:00,
2013-09-14 12:59:00,59.8,48.0,30.16,NNW,342,0.0,0.0,65,0.00,,,0.00,WeatherCatV1.21B27,2013-09-14 16:59:00,
2013-09-14 13:04:00,60.9,48.2,30.16,ENE,67,0.0,1.0,63,0.00,,,0.00,WeatherCatV1.21B27,2013-09-14 17:04:00,
2013-09-14 13:09:00,61.6,49.3,30.16,North,0,1.0,1.0,64,0.00,,,0.00,WeatherCatV1.21B27,2013-09-14 17:09:00,
2013-09-14 13:14:00,61.2,47.2,30.17,North,355,0.0,4.0,60,0.00,,,0.00,WeatherCatV1.21B27,2013-09-14 17:14:00,
2013-09-14 13:19:00,61.8,46.9,30.16,North,355,1.0,6.0,58,0.00,,,0.00,WeatherCatV1.21B27,2013-09-14 17:19:00,
2013-09-14 13:24:00,61.3,46.4,30.16,WSW,249,0.0,4.0,58,0.00,,,0.00,WeatherCatV1.21B27,2013-09-14 17:24:00,
2013-09-14 13:29:00,61.7,48.5,30.16,NE,34,1.0,4.0,62,0.00,,,0.00,WeatherCatV1.21B27,2013-09-14 17:29:00,
2013-09-14 13:34:00,62.5,47.0,30.16,NNE,27,0.0,3.0,57,0.00,,,0.00,WeatherCatV1.21B27,2013-09-14 17:34:00,
2013-09-14 13:39:00,60.8,49.0,30.16,NNE,15,0.0,4.0,65,0.00,,,0.00,WeatherCatV1.21B27,2013-09-14 17:39:00,
2013-09-14 13:44:00,61.9,49.2,30.15,SSW,211,3.0,4.0,63,0.00,,,0.00,WeatherCatV1.21B27,2013-09-14 17:44:00,
2013-09-14 13:49:00,62.4,48.3,30.15,NNE,24,1.0,3.0,60,0.00,,,0.00,WeatherCatV1.21B27,2013-09-14 17:49:00,
2013-09-14 13:54:00,62.5,47.5,30.15,WSW,241,2.0,3.0,58,0.00,,,0.00,WeatherCatV1.21B27,2013-09-14 17:54:00,
2013-09-14 13:59:00,60.5,47.4,30.15,SW,234,0.0,2.0,62,0.00,,,0.00,WeatherCatV1.21B27,2013-09-14 17:59:00,
2013-09-14 14:04:00,62.1,47.6,30.15,SW,236,0.0,3.0,59,0.00,,,0.00,WeatherCatV1.21B27,2013-09-14 18:04:00,
2013-09-14 14:09:00,62.0,48.4,30.15,WSW,255,0.0,3.0,61,0.00,,,0.00,WeatherCatV1.21B27,2013-09-14 18:09:00,
2013-09-14 14:14:00,60.6,49.2,30.15,NE,41,0.0,0.0,66,0.00,,,0.00,WeatherCatV1.21B27,2013-09-14 18:14:00,
2013-09-14 14:19:00,60.6,47.1,30.15,West,264,3.0,5.0,61,0.00,,,0.00,WeatherCatV1.21B27,2013-09-14 18:19:00,
2013-09-14 14:24:00,60.5,47.0,30.15,WSW,257,2.0,3.0,61,0.00,,,0.00,WeatherCatV1.21B27,2013-09-14 18:24:00,
2013-09-14 14:29:00,59.8,47.6,30.14,SW,233,0.0,5.0,64,0.00,,,0.00,WeatherCatV1.21B27,2013-09-14 18:29:00,
2013-09-14 14:34:00,61.4,49.9,30.14,North,0,0.0,3.0,66,0.00,,,0.00,WeatherCatV1.21B27,2013-09-14 18:34:00,
2013-09-14 14:39:00,62.1,48.0,30.14,WSW,245,0.0,1.0,60,0.00,,,0.00,WeatherCatV1.21B27,2013-09-14 18:39:00,
2013-09-14 14:44:00,60.2,46.7,30.14,NW,319,0.0,4.0,61,0.00,,,0.00,WeatherCatV1.21B27,2013-09-14 18:44:00,
2013-09-14 14:49:00,61.4,48.7,30.14,NNE,21,1.0,6.0,63,0.00,,,0.00,WeatherCatV1.21B27,2013-09-14 18:49:00,
2013-09-14 14:54:00,61.6,48.0,30.14,WSW,244,2.0,3.0,61,0.00,,,0.00,WeatherCatV1.21B27,2013-09-14 18:54:00,
2013-09-14 14:59:00,60.6,46.6,30.14,WSW,254,0.0,4.0,60,0.00,,,0.00,WeatherCatV1.21B27,2013-09-14 18:59:00,
2013-09-14 15:04:00,60.0,46.9,30.14,NW,315,0.0,4.0,62,0.00,,,0.00,WeatherCatV1.21B27,2013-09-14 19:04:00,
2013-09-14 15:09:00,60.2,48.0,30.14,North,355,0.0,3.0,64,0.00,,,0.00,WeatherCatV1.21B27,2013-09-14 19:09:00,
2013-09-14 15:14:00,59.9,46.8,30.14,West,264,0.0,2.0,62,0.00,,,0.00,WeatherCatV1.21B27,2013-09-14 19:14:00,
2013-09-14 15:19:00,59.9,47.3,30.14,WSW,255,0.0,0.0,63,0.00,,,0.00,WeatherCatV1.21B27,2013-09-14 19:19:00,
2013-09-14 15:24:00,59.8,47.2,30.13,NNE,30,0.0,1.0,63,0.00,,,0.00,WeatherCatV1.21B27,2013-09-14 19:24:00,
2013-09-14 15:29:00,60.0,48.2,30.13,WSW,248,0.0,3.0,65,0.00,,,0.00,WeatherCatV1.21B27,2013-09-14 19:29:00,
2013-09-14 15:34:00,60.0,48.6,30.13,NE,36,0.0,1.0,66,0.00,,,0.00,WeatherCatV1.21B27,2013-09-14 19:34:00,
2013-09-14 15:39:00,60.1,47.5,30.13,SW,226,0.0,0.0,63,0.00,,,0.00,WeatherCatV1.21B27,2013-09-14 19:39:00,
2013-09-14 15:44:00,60.0,48.2,30.13,NNW,348,0.0,0.0,65,0.00,,,0.00,WeatherCatV1.21B27,2013-09-14 19:44:00,
2013-09-14 15:49:00,60.0,47.8,30.13,West,263,1.0,6.0,64,0.00,,,0.00,WeatherCatV1.21B27,2013-09-14 19:49:00,
2013-09-14 15:54:00,59.9,47.3,30.13,SSW,205,0.0,4.0,63,0.00,,,0.00,WeatherCatV1.21B27,2013-09-14 19:54:00,
2013-09-14 15:59:00,59.7,46.7,30.13,WSW,250,0.0,3.0,62,0.00,,,0.00,WeatherCatV1.21B27,2013-09-14 19:59:00,
2013-09-14 16:04:00,59.5,46.0,30.13,SW,234,0.0,2.0,61,0.00,,,0.00,WeatherCatV1.21B27,2013-09-14 20:04:00,
2013-09-14 16:09:00,59.7,45.8,30.13,WSW,237,0.0,0.0,60,0.00,,,0.00,WeatherCatV1.21B27,2013-09-14 20:09:00,
2013-09-14 16:14:00,59.8,46.8,30.12,West,277,0.0,0.0,62,0.00,,,0.00,WeatherCatV1.21B27,2013-09-14 20:14:00,
2013-09-14 16:19:00,59.9,47.3,30.12,WSW,247,0.0,4.0,63,0.00,,,0.00,WeatherCatV1.21B27,2013-09-14 20:19:00,
2013-09-14 16:24:00,59.9,47.7,30.12,SW,229,0.0,0.0,64,0.00,,,0.00,WeatherCatV1.21B27,2013-09-14 20:24:00,
2013-09-14 16:30:00,60.1,47.5,30.12,North,5,2.0,2.0,63,0.00,,,0.00,WeatherCatV1.21B27,2013-09-14 20:30:00,
2013-09-14 16:35:00,60.3,47.7,30.12,WSW,238,0.0,0.0,63,0.00,,,0.00,WeatherCatV1.21B27,2013-09-14 20:35:00,
2013-09-14 16:40:00,60.8,47.3,30.12,North,11,0.0,3.0,61,0.00,,,0.00,WeatherCatV1.21B27,2013-09-14 20:40:00,
2013-09-14 16:45:00,61.2,47.2,30.12,WNW,290,0.0,0.0,60,0.00,,,0.00,WeatherCatV1.21B27,2013-09-14 20:45:00,
2013-09-14 16:51:00,61.3,47.7,30.12,SW,232,0.0,0.0,61,0.00,,,0.00,WeatherCatV1.21B27,2013-09-14 20:51:00,
2013-09-14 16:56:00,61.2,45.8,30.12,SW,217,2.0,2.0,57,0.00,,,0.00,WeatherCatV1.21B27,2013-09-14 20:56:00,
2013-09-14 17:01:00,60.7,45.4,30.12,SW,215,3.0,3.0,57,0.00,,,0.00,WeatherCatV1.21B27,2013-09-14 21:01:00,
2013-09-14 17:06:00,60.6,46.2,30.12,SW,229,0.0,3.0,59,0.00,,,0.00,WeatherCatV1.21B27,2013-09-14 21:06:00,
2013-09-14 17:11:00,61.1,47.1,30.12,West,272,0.0,3.0,60,0.00,,,0.00,WeatherCatV1.21B27,2013-09-14 21:11:00,
2013-09-14 17:16:00,61.1,47.1,30.12,WSW,251,2.0,5.0,60,0.00,,,0.00,WeatherCatV1.21B27,2013-09-14 21:16:00,
2013-09-14 17:21:00,60.8,46.8,30.12,SW,232,0.0,0.0,60,0.00,,,0.00,WeatherCatV1.21B27,2013-09-14 21:21:00,
2013-09-14 17:26:00,61.4,48.3,30.13,SW,232,0.0,0.0,62,0.00,,,0.00,WeatherCatV1.21B27,2013-09-14 21:26:00,
2013-09-14 17:31:00,61.9,47.0,30.13,WSW,242,3.0,4.0,58,0.00,,,0.00,WeatherCatV1.21B27,2013-09-14 21:31:00,
2013-09-14 17:36:00,61.6,47.6,30.13,SW,221,3.0,5.0,60,0.00,,,0.00,WeatherCatV1.21B27,2013-09-14 21:36:00,
2013-09-14 17:41:00,61.4,46.5,30.13,SW,223,0.0,4.0,58,0.00,,,0.00,WeatherCatV1.21B27,2013-09-14 21:41:00,
2013-09-14 17:46:00,61.4,46.9,30.13,SW,219,2.0,5.0,59,0.00,,,0.00,WeatherCatV1.21B27,2013-09-14 21:46:00,
2013-09-14 17:51:00,61.6,48.9,30.13,SE,143,0.0,0.0,63,0.00,,,0.00,WeatherCatV1.21B27,2013-09-14 21:51:00,
2013-09-14 17:56:00,62.2,47.7,30.13,SSW,200,2.0,3.0,59,0.00,,,0.00,WeatherCatV1.21B27,2013-09-14 21:56:00,
2013-09-14 18:01:00,61.9,47.0,30.13,SW,221,2.0,3.0,58,0.00,,,0.00,WeatherCatV1.21B27,2013-09-14 22:01:00,
2013-09-14 18:06:00,61.8,47.3,30.12,SW,229,2.0,2.0,59,0.00,,,0.00,WeatherCatV1.21B27,2013-09-14 22:06:00,
2013-09-14 18:11:00,61.5,47.0,30.12,SW,229,0.0,0.0,59,0.00,,,0.00,WeatherCatV1.21B27,2013-09-14 22:11:00,
2013-09-14 18:16:00,61.0,46.6,30.12,West,259,0.0,3.0,59,0.00,,,0.00,WeatherCatV1.21B27,2013-09-14 22:16:00,
2013-09-14 18:21:00,60.4,46.0,30.12,West,259,0.0,1.0,59,0.00,,,0.00,WeatherCatV1.21B27,2013-09-14 22:21:00,
2013-09-14 18:26:00,60.1,45.7,30.12,West,259,0.0,0.0,59,0.00,,,0.00,WeatherCatV1.21B27,2013-09-14 22:26:00,
2013-09-14 18:31:00,59.9,46.4,30.12,West,259,0.0,0.0,61,0.00,,,0.00,WeatherCatV1.21B27,2013-09-14 22:31:00,
2013-09-14 18:36:00,59.8,46.8,30.12,West,259,0.0,0.0,62,0.00,,,0.00,WeatherCatV1.21B27,2013-09-14 22:36:00,
2013-09-14 18:41:00,59.4,46.8,30.12,West,259,0.0,1.0,63,0.00,,,0.00,WeatherCatV1.21B27,2013-09-14 22:41:00,
2013-09-14 18:46:00,59.4,46.8,30.12,West,259,0.0,0.0,63,0.00,,,0.00,WeatherCatV1.21B27,2013-09-14 22:46:00,
2013-09-14 18:50:00,59.2,47.0,30.12,West,259,0.0,0.0,64,0.00,,,0.00,WeatherCatV1.21B27,2013-09-14 22:50:00,
2013-09-14 18:55:00,58.8,46.7,30.12,West,259,0.0,0.0,64,0.00,,,0.00,WeatherCatV1.21B27,2013-09-14 22:55:00,
2013-09-14 19:00:00,58.5,47.2,30.12,West,259,0.0,0.0,66,0.00,,,0.00,WeatherCatV1.21B27,2013-09-14 23:00:00,
2013-09-14 19:05:00,58.2,47.3,30.12,West,259,0.0,0.0,67,0.00,,,0.00,WeatherCatV1.21B27,2013-09-14 23:05:00,
2013-09-14 19:10:00,57.9,47.4,30.12,West,259,0.0,0.0,68,0.00,,,0.00,WeatherCatV1.21B27,2013-09-14 23:10:00,
2013-09-14 19:15:00,57.4,47.3,30.11,West,259,0.0,0.0,69,0.00,,,0.00,WeatherCatV1.21B27,2013-09-14 23:15:00,
2013-09-14 19:20:00,57.1,47.4,30.12,West,259,0.0,0.0,70,0.00,,,0.00,WeatherCatV1.21B27,2013-09-14 23:20:00,
2013-09-14 19:26:00,56.7,47.4,30.12,West,259,0.0,0.0,71,0.00,,,0.00,WeatherCatV1.21B27,2013-09-14 23:26:00,
2013-09-14 19:31:00,56.4,47.8,30.12,West,259,0.0,0.0,73,0.00,,,0.00,WeatherCatV1.21B27,2013-09-14 23:31:00,
2013-09-14 19:36:00,56.1,48.3,30.12,West,259,0.0,0.0,75,0.00,,,0.00,WeatherCatV1.21B27,2013-09-14 23:36:00,
2013-09-14 19:41:00,55.6,48.2,30.12,West,259,0.0,0.0,76,0.00,,,0.00,WeatherCatV1.21B27,2013-09-14 23:41:00,
2013-09-14 19:46:00,55.2,48.1,30.12,West,259,0.0,0.0,77,0.00,,,0.00,WeatherCatV1.21B27,2013-09-14 23:46:00,
2013-09-14 19:51:00,54.9,48.2,30.12,West,259,0.0,0.0,78,0.00,,,0.00,WeatherCatV1.21B27,2013-09-14 23:51:00,
2013-09-14 19:56:00,54.7,48.0,30.12,West,259,0.0,0.0,78,0.00,,,0.00,WeatherCatV1.21B27,2013-09-14 23:56:00,
2013-09-14 20:01:00,54.4,47.7,30.12,West,259,0.0,0.0,78,0.00,,,0.00,WeatherCatV1.21B27,2013-09-15 00:01:00,
2013-09-14 20:06:00,54.0,47.6,30.12,West,259,0.0,0.0,79,0.00,,,0.00,WeatherCatV1.21B27,2013-09-15 00:06:00,
2013-09-14 20:11:00,53.7,47.7,30.12,West,259,0.0,0.0,80,0.00,,,0.00,WeatherCatV1.21B27,2013-09-15 00:11:00,
2013-09-14 20:16:00,53.4,47.4,30.12,West,259,0.0,0.0,80,0.00,,,0.00,WeatherCatV1.21B27,2013-09-15 00:16:00,
2013-09-14 20:21:00,53.1,47.1,30.13,West,259,0.0,0.0,80,0.00,,,0.00,WeatherCatV1.21B27,2013-09-15 00:21:00,
2013-09-14 20:26:00,52.8,47.1,30.13,West,259,0.0,0.0,81,0.00,,,0.00,WeatherCatV1.21B27,2013-09-15 00:26:00,
2013-09-14 20:31:00,52.5,46.8,30.13,West,259,0.0,0.0,81,0.00,,,0.00,WeatherCatV1.21B27,2013-09-15 00:31:00,
2013-09-14 20:36:00,52.3,47.0,30.14,West,259,0.0,0.0,82,0.00,,,0.00,WeatherCatV1.21B27,2013-09-15 00:36:00,
2013-09-14 20:41:00,52.0,46.7,30.14,West,259,0.0,0.0,82,0.00,,,0.00,WeatherCatV1.21B27,2013-09-15 00:41:00,
2013-09-14 20:46:00,51.8,46.8,30.14,West,259,0.0,0.0,83,0.00,,,0.00,WeatherCatV1.21B27,2013-09-15 00:46:00,
2013-09-14 20:51:00,51.5,46.5,30.15,West,259,0.0,0.0,83,0.00,,,0.00,WeatherCatV1.21B27,2013-09-15 00:51:00,
2013-09-14 20:56:00,51.3,46.3,30.15,West,259,0.0,0.0,83,0.00,,,0.00,WeatherCatV1.21B27,2013-09-15 00:56:00,
2013-09-14 21:01:00,51.1,46.4,30.15,West,259,0.0,0.0,84,0.00,,,0.00,WeatherCatV1.21B27,2013-09-15 01:01:00,
2013-09-14 21:06:00,50.9,46.2,30.15,West,259,0.0,0.0,84,0.00,,,0.00,WeatherCatV1.21B27,2013-09-15 01:06:00,
2013-09-14 21:11:00,50.8,46.5,30.15,West,259,0.0,0.0,85,0.00,,,0.00,WeatherCatV1.21B27,2013-09-15 01:11:00,
2013-09-14 21:16:00,50.6,46.3,30.15,West,259,0.0,0.0,85,0.00,,,0.00,WeatherCatV1.21B27,2013-09-15 01:16:00,
2013-09-14 21:21:00,50.5,46.2,30.14,West,259,0.0,0.0,85,0.00,,,0.00,WeatherCatV1.21B27,2013-09-15 01:21:00,
2013-09-14 21:26:00,50.5,46.5,30.14,West,259,0.0,0.0,86,0.00,,,0.00,WeatherCatV1.21B27,2013-09-15 01:26:00,
2013-09-14 21:31:00,50.3,46.3,30.14,West,259,0.0,0.0,86,0.00,,,0.00,WeatherCatV1.21B27,2013-09-15 01:31:00,
2013-09-14 21:36:00,50.2,46.2,30.15,West,259,0.0,0.0,86,0.00,,,0.00,WeatherCatV1.21B27,2013-09-15 01:36:00,
2013-09-14 21:41:00,50.0,46.0,30.14,West,259,0.0,0.0,86,0.00,,,0.00,WeatherCatV1.21B27,2013-09-15 01:41:00,
2013-09-14 21:46:00,49.8,45.8,30.15,West,259,0.0,0.0,86,0.00,,,0.00,WeatherCatV1.21B27,2013-09-15 01:46:00,
2013-09-14 21:51:00,49.7,45.7,30.15,West,259,0.0,0.0,86,0.00,,,0.00,WeatherCatV1.21B27,2013-09-15 01:51:00,
2013-09-14 21:56:00,49.6,45.9,30.15,West,259,0.0,0.0,87,0.00,,,0.00,WeatherCatV1.21B27,2013-09-15 01:56:00,
2013-09-14 22:01:00,49.5,45.8,30.15,West,259,0.0,0.0,87,0.00,,,0.00,WeatherCatV1.21B27,2013-09-15 02:01:00,
2013-09-14 22:06:00,49.3,45.6,30.15,West,259,0.0,0.0,87,0.00,,,0.00,WeatherCatV1.21B27,2013-09-15 02:06:00,
2013-09-14 22:11:00,49.2,45.5,30.15,West,259,0.0,0.0,87,0.00,,,0.00,WeatherCatV1.21B27,2013-09-15 02:11:00,
2013-09-14 22:16:00,49.1,45.4,30.15,West,259,0.0,0.0,87,0.00,,,0.00,WeatherCatV1.21B27,2013-09-15 02:16:00,
2013-09-14 22:21:00,49.1,45.4,30.14,West,259,0.0,0.0,87,0.00,,,0.00,WeatherCatV1.21B27,2013-09-15 02:21:00,
2013-09-14 22:26:00,49.0,45.3,30.14,West,259,0.0,0.0,87,0.00,,,0.00,WeatherCatV1.21B27,2013-09-15 02:26:00,
2013-09-14 22:31:00,48.9,45.2,30.15,West,259,0.0,0.0,87,0.00,,,0.00,WeatherCatV1.21B27,2013-09-15 02:31:00,
2013-09-14 22:36:00,48.9,45.5,30.14,West,259,0.0,0.0,88,0.00,,,0.00,WeatherCatV1.21B27,2013-09-15 02:36:00,
2013-09-14 22:41:00,48.9,45.5,30.14,West,259,0.0,0.0,88,0.00,,,0.00,WeatherCatV1.21B27,2013-09-15 02:41:00,
2013-09-14 22:46:00,48.8,45.4,30.14,West,259,0.0,0.0,88,0.00,,,0.00,WeatherCatV1.21B27,2013-09-15 02:46:00,
2013-09-14 22:51:00,48.9,45.5,30.14,West,259,0.0,0.0,88,0.00,,,0.00,WeatherCatV1.21B27,2013-09-15 02:51:00,
2013-09-14 22:56:00,48.9,45.5,30.14,West,259,0.0,0.0,88,0.00,,,0.00,WeatherCatV1.21B27,2013-09-15 02:56:00,
2013-09-14 23:01:00,48.8,45.4,30.14,West,259,0.0,0.0,88,0.00,,,0.00,WeatherCatV1.21B27,2013-09-15 03:01:00,
2013-09-14 23:06:00,48.7,45.3,30.14,West,259,0.0,0.0,88,0.00,,,0.00,WeatherCatV1.21B27,2013-09-15 03:06:00,
2013-09-14 23:11:00,48.5,45.1,30.14,West,259,0.0,0.0,88,0.00,,,0.00,WeatherCatV1.21B27,2013-09-15 03:11:00,
2013-09-14 23:16:00,48.4,45.0,30.14,West,259,0.0,0.0,88,0.00,,,0.00,WeatherCatV1.21B27,2013-09-15 03:16:00,
2013-09-14 23:21:00,48.4,45.0,30.13,West,259,0.0,0.0,88,0.00,,,0.00,WeatherCatV1.21B27,2013-09-15 03:21:00,
2013-09-14 23:26:00,48.4,45.0,30.14,West,259,0.0,0.0,88,0.00,,,0.00,WeatherCatV1.21B27,2013-09-15 03:26:00,
2013-09-14 23:31:00,48.3,44.9,30.14,West,259,0.0,0.0,88,0.00,,,0.00,WeatherCatV1.21B27,2013-09-15 03:31:00,
2013-09-14 23:36:00,48.3,44.9,30.14,West,259,0.0,0.0,88,0.00,,,0.00,WeatherCatV1.21B27,2013-09-15 03:36:00,
2013-09-14 23:41:00,48.2,44.8,30.13,West,259,0.0,0.0,88,0.00,,,0.00,WeatherCatV1.21B27,2013-09-15 03:41:00,
2013-09-14 23:46:00,48.2,44.8,30.13,West,259,0.0,0.0,88,0.00,,,0.00,WeatherCatV1.21B27,2013-09-15 03:46:00,
2013-09-14 23:51:00,48.1,44.7,30.13,West,259,0.0,0.0,88,0.00,,,0.00,WeatherCatV1.21B27,2013-09-15 03:51:00,
2013-09-14 23:56:00,48.0,44.6,30.13,West,259,0.0,0.0,88,0.00,,,0.00,WeatherCatV1.21B27,2013-09-15 03:56:00,